Regional Weather Roundup
Issued by NWS

Home | Current Version | Previous Version | Text Only | Print | Product List | Glossary On
Versions: 1 2 3 4 5 6 7 8 9 10 11 12 13 14 15 16 17 18 19 20 21 22 23 24 25 26 27 28 29 30 31 32 33 34 35 36 37 38 39 40 41 42 43 44 45 46 47 48 49 50
571
ASUS43 KDMX 271108
RWRIA

WEATHER ROUNDUP FOR IOWA
NATIONAL WEATHER SERVICE DES MOINES IA
600 AM CDT SAT AUG 27 2016

NOTE: "FAIR" INDICATES FEW OR NO CLOUDS BELOW 12,000 FEET WITH NO
SIGNIFICANT WEATHER AND/OR OBSTRUCTIONS TO VISIBILITY.

* - THESE STATIONS ARE NOT NWS STATIONS...THUS NOT UNDER NWS
QUALITY CONTROL.  THEY ALSO DO NOT REPORT WEATHER SUCH
AS PRECIPITATION OR FOG.

IAZ001>003-012>014-020>022-031>034-043>046-271200-
   NORTHWEST IOWA

CITY           SKY/WX    TMP DP  RH WIND       PRES   REMARKS
CARROLL *      CLOUDY    63  61  94 SE5       30.00F
CHEROKEE *     CLOUDY    61  61 100 S3        30.01S
DENISON *      CLOUDY    63  63 100 SE3       29.99S FOG
LE MARS *      CLOUDY    63  61  94 CALM      30.01S
ORANGE CITY *  CLOUDY    63  61  94 S3        30.01R
SHELDON *      CLOUDY    61  61 100 S6        29.99S FOG
SIOUX CITY     CLOUDY    64  62  93 SE6       30.00S
SPENCER        CLOUDY    60  58  92 SE7       30.01R
STORM LAKE *   CLOUDY    61  61 100 SE8       30.02R FOG
$$

IAZ055>058-069>071-079>083-090>094-271200-
   SOUTHWEST IOWA

CITY           SKY/WX    TMP DP  RH WIND       PRES   REMARKS
ATLANTIC *     CLOUDY    64  64 100 CALM      30.00S FOG
AUDUBON *      FOG       63  61  94 CALM      30.01F VSB 3/4
CLARINDA *       N/A     68  68 100 MISG      30.02R FOG
COUNCIL BLFS * FOG       66  66 100 E3        30.00S VSB<1/4
CRESTON *      FOG       64  64 100 SE3       30.02R VSB 1/4
HARLAN  *      FOG       64  63  94 CALM      30.04R VSB 1/4
LAMONI         FOG       67  67 100 CALM      30.00S VSB 3/4
RED OAK *      FOG       66  66 100 CALM      30.00S VSB 1/2
SHENANDOAH *   HAZE      66 -40   1 CALM      30.00S VSB 1/4
$$

IAZ047>049-059>061-072>074-084-271200-
   CENTRAL IOWA

CITY           SKY/WX    TMP DP  RH WIND       PRES   REMARKS
AMES           CLOUDY    61  61 100 N5        30.02R
ANKENY *         N/A    N/A N/A N/A MISG        N/A
BOONE *          N/A     61  59  94 E5        30.01R
CHARITON *     FOG       66  66 100 MISG      29.99S VSB 1/2
DES MOINES     CLOUDY    64  62  93 NE5       29.99S
GRINNELL*      DRIZZLE   64  62  96 E6        30.01S
KNOXVILLE *    CLOUDY    66  64  94 CALM      29.98S FOG
MARSHALLTOWN   CLOUDY    63  63 100 NE3       30.01R
NEWTON *       CLOUDY    63  63 100 NE6       30.00R FOG
PELLA *        CLOUDY    65  64  97 CALM      30.01R FOG
PERRY *        CLOUDY    63  62  97 CALM      30.01S
$$

IAZ004>006-015-016-023>025-035-036-271200-
   NORTH CENTRAL IOWA

CITY           SKY/WX    TMP DP  RH WIND       PRES   REMARKS
ALGONA *       CLOUDY    61  61 100 SE5       30.03F
ESTHERVILLE    CLOUDY    59  59 100 E7        30.01F
FORT DODGE *   CLOUDY    61  57  88 CALM      30.03F
MASON CITY     HVY RAIN  60  59  96 E6        30.04F FOG
FOREST CITY *    N/A    N/A N/A N/A MISG        N/A
WEBSTER CITY * CLOUDY    61  61 100 E5        30.00S
IOWA FALLS *   CLOUDY    62  59  92 E6        30.03S
$$

IAZ007>011-017>019-026>030-037>042-050>054-066-271200-
   NORTHEAST IOWA

CITY           SKY/WX    TMP DP  RH WIND       PRES   REMARKS
CEDAR RAPIDS   CLOUDY    65  65 100 E6        29.99S FOG
CHARLES CITY * CLOUDY    61  61 100 E12       30.04S
CLINTON *      CLOUDY    69  68  96 E5        30.02S FOG
DECORAH *      RAIN      61  61 100 E6        30.04F
DUBUQUE        FOG       63  63 100 NE10      30.04S VSB 1/2
MONTICELLO *   CLOUDY    64  63  94 NE6       30.01F
OELWEIN *      CLOUDY    63  61  94 E10       30.03S
WATERLOO       LGT RAIN  62  60  93 CALM      30.01R
$$

IAZ064-065-067-068-078-271200-
   EAST CENTRAL IOWA

CITY           SKY/WX    TMP DP  RH WIND       PRES   REMARKS
DAVENPORT      CLOUDY    68  67  96 SE5       30.01R FOG
IOWA CITY      CLOUDY    68  66  93 CALM      30.01R
MT. PLEASANT * PTCLDY    69  69 100 S3        30.01R FOG
MUSCATINE *    CLOUDY    72  70  94 CALM      30.00R
QUAD CITIES    CLOUDY    70  68  93 CALM      30.00R
$$

IAZ062-063-075>077-085>089-095>099-271200-
   SOUTHEAST IOWA

CITY           SKY/WX    TMP DP  RH WIND       PRES   REMARKS
BURLINGTON     MOCLDY    69  69 100 S7        30.02R
FAIRFIELD *    CLOUDY    70  68  94 SW6       30.00R
FORT MADISON * CLEAR     68  68 100 S6        30.02R
KEOKUK *       CLOUDY    70  70 100 S7        30.01R
OSKALOOSA *    CLOUDY    66  66  98 S5        30.00S FOG
CENTERVILLE *  CLOUDY    68  68 100 CALM      30.02R
OTTUMWA        CLOUDY    68  66  93 S5        30.00R
WASHINGTON *   CLOUDY    70  70 100 S6        30.01R
$$

ABBREVIATIONS USED IN REMARKS
   TC - TEMPERATURES IN CELSIUS
  WCI - WIND CHILL INDEX
   HX - HEAT INDEX
  VSB - VISIBILITY
$$





USA.gov is the U.S. government's official web portal to all federal, state and local government web resources and services.